Theta_e
360 360 358 357 357 358 358 358 358 358 359 359 359 361 362 365 367 366 366 365 364 363 364 364 363 363 364 362 360 359 357 356 353 354 353 351 350 348 347 348 348 347
360 360 360 359 358 359 360 359 359 359 360 361 361 362 365 366 366 366 365 364 364 362 363 363 362 364 363 361 359 357 356 355 353 353 352 352 351 349 347 349 348 348
360 360 359 358 357 357 356 359 360 360 359 360 361 363 363 364 364 366 366 365 363 362 363 362 362 364 363 361 359 357 355 354 352 350 352 352 350 349 349 345 347 349
360 360 358 358 358 357 357 358 359 359 359 359 359 360 361 362 364 364 365 364 364 363 362 361 361 362 362 361 359 356 355 354 353 354 352 352 352 350 349 350 348 348
359 359 359 359 359 359 359 358 356 357 357 357 359 361 362 363 363 362 363 363 363 363 362 360 360 362 362 360 358 356 354 353 353 353 351 350 352 350 349 349 348 346
360 360 360 359 359 359 358 357 357 356 357 356 358 359 360 362 362 361 362 361 361 360 360 360 360 361 360 359 357 356 354 351 352 352 350 350 349 349 347 349 348 347
358 359 359 359 359 359 358 358 358 358 357 358 360 359 360 360 361 361 362 362 360 361 362 362 362 360 360 359 357 355 354 353 353 351 350 349 350 350 348 348 348 347
357 357 358 358 357 357 358 357 357 358 359 359 358 359 360 359 361 361 362 362 361 362 363 363 362 362 359 358 356 354 354 353 352 351 350 350 350 349 349 348 348 348
357 357 357 358 356 356 356 355 357 358 359 358 357 357 359 359 360 360 362 363 361 362 363 362 362 362 360 358 356 355 354 352 351 351 350 349 349 348 348 349 347 347
357 357 356 355 354 355 355 355 355 357 358 357 356 356 357 359 360 361 362 362 361 362 362 362 362 361 360 359 357 356 355 354 352 351 351 350 349 349 348 348 346 346
355 355 355 355 354 354 355 355 355 355 357 356 356 355 357 358 359 361 361 361 359 360 361 361 361 361 360 358 358 357 356 355 354 352 352 351 350 350 348 349 347 346
355 355 354 354 354 354 354 355 355 355 356 356 356 356 357 357 358 359 359 360 360 360 361 361 361 361 360 359 357 356 356 355 354 353 352 352 351 351 350 350 348 348
354 355 355 354 356 355 355 355 355 355 355 355 356 356 356 356 357 358 359 359 360 360 360 361 361 360 360 360 358 357 356 355 353 353 352 352 351 350 350 349 349 348
355 356 357 357 357 358 357 356 356 356 357 357 357 356 355 356 356 357 358 359 359 360 361 361 361 360 360 360 359 357 355 354 353 352 351 351 351 350 349 348 348 348
357 357 358 359 358 358 357 357 357 357 358 358 358 357 356 356 357 357 358 358 359 359 360 360 359 359 359 359 358 357 356 354 353 352 351 350 350 349 348 348 348 347
358 358 358 359 358 358 358 358 357 358 357 358 358 357 358 358 359 358 358 357 357 358 359 359 358 359 346 334 339 356 356 354 353 352 352 350 350 348 347 347 346 346
357 358 359 358 358 359 359 359 358 359 359 359 359 359 358 359 358 358 357 357 357 357 357 357 357 355 333 330 332 335 352 355 353 352 352 351 349 349 348 347 347 347
356 358 358 357 358 358 359 359 359 359 358 359 359 359 359 359 358 358 358 357 357 357 356 357 357 338 329 328 329 329 336 354 354 353 351 350 350 349 349 348 347 346
359 358 357 358 358 358 359 359 359 359 359 359 358 359 359 359 358 357 358 358 357 357 356 356 357 335 328 326 327 327 328 340 354 353 351 350 350 350 349 349 349 347
358 357 357 358 358 359 359 359 358 358 358 358 358 359 359 358 358 358 358 358 358 357 357 357 357 334 326 324 324 324 326 333 353 353 352 351 351 351 350 350 350 349
358 358 358 359 359 359 358 358 357 358 358 358 357 357 358 358 357 357 358 358 358 357 357 356 356 330 323 322 321 321 323 327 351 353 352 352 352 352 351 351 351 350
358 358 358 359 359 358 358 357 358 358 358 359 359 358 359 358 359 358 357 358 358 358 356 356 356 327 322 321 320 319 321 338 349 352 352 352 352 352 352 352 352 351
357 357 358 358 359 358 358 357 357 358 359 360 358 358 357 356 357 357 358 358 358 358 357 356 357 334 320 318 318 317 323 344 348 351 352 351 351 352 352 352 351 351
358 358 358 358 358 357 357 357 358 359 359 360 358 356 355 356 357 358 358 359 357 357 357 356 357 337 316 316 316 315 326 345 348 350 350 350 351 352 353 352 351 344
358 359 359 357 358 358 358 358 358 359 359 360 358 358 357 359 358 357 358 359 358 357 342 351 357 338 315 316 315 314 328 348 349 350 349 349 350 350 352 352 352 344
356 359 358 357 358 359 359 359 360 359 359 359 358 358 357 358 357 357 356 356 358 357 357 355 355 356 330 314 314 313 319 347 351 349 348 349 350 350 349 349 349 350
Wind_Speed
13 12 13 12 12 11 11 11 11 12 11 11 10 10 10 9 9 10 10 9 10 11 10 9 10 10 7 7 7 6 6 7 7 6 7 7 6 7 6 6 6 5
16 14 12 11 10 10 10 12 12 12 11 11 10 9 8 9 10 10 10 10 10 11 11 10 12 9 9 7 8 8 7 7 8 5 6 8 6 7 8 8 7 6
16 15 15 15 14 15 15 12 11 11 11 11 10 9 8 9 10 10 10 10 10 11 11 11 12 9 9 8 8 8 8 8 8 8 7 7 7 6 7 7 6 7
17 16 16 16 15 14 14 12 11 10 11 10 12 11 9 8 10 11 10 11 10 10 10 11 12 9 9 9 9 8 8 8 8 7 7 6 6 7 7 6 6 6
17 16 15 15 14 13 13 13 14 13 13 12 11 10 9 9 10 10 10 11 11 10 10 11 13 10 9 9 9 8 8 8 8 8 7 7 7 7 6 6 7 7
15 15 15 14 14 13 13 14 14 14 14 13 12 11 11 11 10 11 11 12 11 12 12 12 12 10 10 9 9 9 8 8 8 9 9 9 8 7 6 7 8 8
17 16 17 15 15 15 14 14 14 13 13 12 10 11 11 12 12 12 12 12 13 12 12 11 11 10 9 9 9 9 9 9 9 10 10 8 8 8 8 7 8 8
19 17 17 16 17 16 16 14 14 13 13 12 12 12 12 13 13 12 12 12 13 13 12 12 11 11 11 10 10 10 10 8 9 10 10 10 8 9 9 7 8 8
18 17 17 18 19 17 18 17 15 14 13 13 13 13 12 13 13 13 13 13 13 12 12 12 12 12 11 11 11 12 12 11 10 11 11 11 10 10 10 9 9 9
18 17 19 20 20 18 19 19 16 15 14 15 15 13 13 13 13 14 13 13 13 13 13 12 13 12 12 12 12 12 12 12 11 11 11 12 11 11 11 10 10 10
20 19 19 21 21 18 20 19 18 16 15 16 15 15 15 13 13 13 13 13 13 14 14 14 14 13 13 13 12 12 12 12 12 12 12 12 12 11 12 11 11 11
21 20 21 22 21 20 20 20 18 17 16 15 17 17 16 15 14 13 13 14 15 15 15 14 14 13 14 14 14 13 12 12 12 12 12 12 12 12 12 11 11 12
20 20 20 20 19 19 18 18 19 18 18 17 17 18 17 16 16 16 14 15 15 15 15 14 14 14 13 13 13 13 13 13 13 12 12 11 12 12 12 12 12 12
19 19 18 18 17 17 17 18 18 18 17 16 16 18 18 18 17 17 15 14 15 15 15 13 13 13 13 13 13 13 12 13 13 12 12 12 12 12 12 12 13 13
16 16 15 16 17 16 17 17 17 17 16 16 16 17 16 18 17 17 16 16 16 15 15 14 13 13 12 13 13 14 13 13 14 13 13 12 12 12 12 12 12 12
14 14 15 16 16 16 17 17 17 17 17 17 16 16 15 15 16 16 17 16 16 16 15 13 13 12 14 18 16 13 14 12 12 12 13 12 12 12 12 13 13 13
14 15 14 16 17 16 16 17 18 16 16 16 15 16 16 15 15 17 17 16 17 16 16 14 13 12 18 18 19 18 14 13 13 13 13 13 13 12 12 12 12 13
15 15 16 17 16 17 17 17 16 16 16 16 16 16 16 15 16 16 15 16 15 16 17 15 14 15 18 20 20 20 17 13 12 12 12 13 13 13 11 11 11 11
14 15 16 16 17 17 16 15 16 16 16 16 17 16 15 16 16 17 16 16 16 17 17 16 15 16 19 21 21 21 21 17 12 13 13 13 13 13 12 11 10 10
16 17 17 17 16 15 15 16 17 18 18 17 16 15 15 16 17 18 17 17 16 16 15 15 16 16 21 21 22 22 21 18 13 13 13 13 13 13 12 12 12 11
16 17 17 16 16 16 16 17 18 17 17 16 16 17 17 17 17 18 17 16 16 16 14 15 15 16 21 22 22 22 21 19 14 12 12 12 12 12 12 12 12 12
17 16 15 15 16 16 17 18 18 18 18 16 15 15 15 15 15 16 17 17 17 17 17 17 16 17 20 22 22 21 21 14 14 14 13 12 12 12 12 11 12 12
16 16 15 15 15 16 17 18 17 17 15 14 15 15 16 17 19 17 16 17 18 17 18 16 15 16 21 22 21 22 17 13 14 13 13 13 12 12 12 12 12 12
14 15 16 16 16 18 19 18 17 14 15 14 16 16 17 18 17 18 17 16 18 19 18 17 16 15 22 22 23 23 20 15 12 14 18 17 13 12 11 11 13 15
15 15 14 16 17 18 17 18 17 16 15 14 16 15 16 14 15 18 16 15 17 19 18 19 17 15 23 22 24 23 20 13 13 14 18 18 16 14 13 11 10 13
14 14 16 16 16 15 15 16 14 14 15 15 15 15 16 16 17 17 20 19 18 18 15 19 20 13 18 25 25 24 26 16 13 15 19 19 18 16 15 14 14 12
Wind_Direction
200 198 200 201 203 201 198 195 199 200 201 202 204 203 201 196 187 189 193 198 208 218 211 207 216 214 195 191 191 196 198 199 202 190 192 195 202 211 215 214 209 218
203 199 198 200 201 197 199 197 196 198 200 201 206 203 197 186 187 188 192 197 202 215 217 213 217 201 195 192 188 196 197 197 202 189 192 195 203 208 220 217 216 214
202 201 199 200 203 204 207 204 201 200 203 206 205 204 199 194 192 190 194 197 203 209 210 218 216 198 195 192 185 195 199 195 201 198 192 199 203 205 220 223 217 208
202 202 202 205 206 203 201 199 198 200 204 204 206 206 201 197 193 190 192 191 199 203 207 214 217 198 195 192 187 198 199 198 200 192 191 195 199 206 212 216 219 214
201 202 203 204 204 200 196 199 202 201 204 206 204 201 196 192 193 197 195 194 199 204 205 212 218 202 191 190 189 198 198 200 195 191 196 198 197 195 208 208 213 216
200 201 201 201 200 196 197 202 204 204 203 204 200 198 199 196 199 202 200 198 198 203 206 208 207 199 194 191 189 200 198 203 196 190 198 203 203 195 202 203 208 212
197 197 200 202 205 203 203 203 202 202 202 203 196 198 196 197 200 202 202 201 201 199 199 197 196 197 193 191 193 196 200 199 195 189 197 204 201 196 200 200 205 209
199 200 201 203 205 205 203 203 203 200 200 196 197 196 195 199 200 202 203 202 202 200 198 197 194 194 192 190 194 198 201 198 200 192 198 206 199 201 198 201 199 204
196 199 197 200 203 204 205 204 203 202 198 200 203 203 199 202 202 203 201 200 203 203 197 197 195 196 195 192 195 197 200 201 201 198 200 204 202 201 199 196 200 203
193 197 198 201 204 206 206 206 205 202 198 200 201 204 201 200 202 201 200 198 202 204 202 199 196 196 195 195 195 197 201 201 199 201 204 207 207 201 198 198 203 203
198 197 200 203 205 206 207 206 206 204 200 200 200 204 204 198 200 200 200 200 204 207 205 203 199 195 195 198 198 199 201 202 202 203 207 208 208 204 200 198 201 207
198 198 202 203 202 204 205 204 203 203 201 198 199 202 202 202 198 199 201 202 205 207 207 205 200 195 195 197 198 197 199 204 204 206 208 208 209 207 203 202 205 206
195 198 199 199 198 200 201 202 202 202 201 200 198 201 200 202 202 201 201 203 206 207 208 205 200 197 196 196 197 194 196 201 207 208 209 209 210 210 209 207 208 207
194 195 195 194 195 196 198 200 201 202 202 200 198 199 202 203 203 201 201 202 205 207 209 205 200 198 198 197 194 193 194 200 204 206 207 209 211 211 212 211 210 210
188 191 190 188 190 191 193 198 200 200 199 199 198 200 202 205 204 202 201 202 205 207 207 205 203 202 200 196 195 195 198 201 203 205 205 207 210 212 211 212 212 212
186 189 189 187 188 192 194 195 198 198 198 198 197 198 200 201 203 203 203 201 202 206 206 205 205 205 199 193 193 194 196 200 200 203 205 207 207 210 212 210 212 214
189 193 187 188 193 194 194 194 197 198 200 200 200 199 201 199 201 204 204 204 204 205 206 207 206 206 192 191 196 197 195 196 196 199 202 205 208 207 209 207 211 215
192 188 189 193 191 194 193 194 197 200 202 200 198 198 198 201 202 204 206 208 209 211 211 209 210 201 187 191 195 198 200 200 199 201 201 204 208 210 209 208 209 210
185 186 191 192 194 193 192 192 195 199 201 200 202 201 199 201 204 205 209 209 210 211 213 212 216 192 187 189 195 198 200 203 208 205 203 205 206 207 207 206 207 206
186 189 193 194 190 188 189 192 196 203 204 204 203 201 202 204 205 207 209 208 209 210 212 215 219 189 185 188 194 196 196 199 213 207 208 207 205 203 204 206 203 202
189 191 193 189 186 186 189 194 198 202 202 202 202 203 203 202 203 207 210 211 210 210 213 215 220 188 184 189 193 193 193 196 210 213 210 209 205 205 205 205 204 204
191 192 190 188 187 188 192 197 199 199 200 197 201 206 210 207 208 211 211 210 209 210 214 218 219 187 184 188 191 191 187 194 207 213 213 209 208 209 208 208 207 204
191 191 190 189 189 191 197 199 199 200 199 194 200 204 206 211 215 211 212 213 211 212 214 217 221 185 184 185 187 185 180 199 204 211 218 214 212 211 209 209 205 203
183 185 186 187 189 196 198 200 201 201 200 195 202 205 209 212 215 218 212 211 211 212 211 213 219 183 181 182 185 180 183 194 199 210 222 222 219 213 211 207 207 199
187 186 185 187 194 197 196 198 198 197 196 196 205 208 212 213 215 223 217 212 214 214 205 210 219 194 177 180 182 179 186 195 197 208 221 223 223 219 215 214 208 198
194 191 195 197 197 195 197 200 197 196 197 198 204 210 215 217 221 222 227 225 222 219 212 211 216 206 176 179 179 178 185 191 199 204 219 221 221 220 218 222 221 213